Погода Винницы

Погода Винницы : погода сейчас, прогноз погоды и архив. Всё, что Вы хотите узнать о погоде Винницы!

Поиск расширенной информации на нашем сайте:

Другие новости

Новости СМИ2

Главная страница сайта

Новости сайта

03.07.2017

Напоминаем, что на нашем специализированном сайте Метеоцентр.Азия вы можете получить высокодетализированные автоматические прогнозы погоды по пунктам России, СНГ и мира в авиационном формате (включающие направление и скорость ветра, видимость, явления погоды, количество и форму облачности, нижнюю и верхнюю границу облачности).

Рекомендуем: Комплектующие секционных промышленных ворот. Промышленные секционные ворота качество.

Погода Винницы - сегодня

Время (UTC), дата Ветер
(°,м/с) 
Видим.   Явления Облачность Т
(°С)
Тd
(°С)
f(%) Тe
(°С)
Pmin
(гПа)
dP
(гПа)
Po
(мм)
O2
(г/м3)
Тmin Tmax R s Состояние
почвы
09 16.08.17 230 (ЮЗ) 20000 м    5/5 600 м 
[Cu hum]
+21.2 +9 46 +21  1027.8  -0.6  761  283           
12 16.08.17 220 (ЮЗ) н/о    н/о 
+22 +8.3 41 +22  1026.8  -1  760  282           
15 16.08.17 220 (ЮЗ) 20000 м    3/3 600 м 
[Cu hum]
+20 +8.9 49 +20  1025.8  -1  760  284           
18 16.08.17 тихо ()   20000 м    8/5 1000 м средняя 
[Sc|Ac und]
+13.8 +12.6 92 +18  1025.7  -0.4  759  289    +22.5       
21 16.08.17 080 (В) 50000 м    10/5 600 м кучево-дожд., средняя 
[Cb cap|Ac und]
+13.3 +12.2 93 +19  1025.8  759  289           
00 17.08.17 110 (В) 50000 м    9/3 600 м кучево-дожд., средняя 
[Cb cap|Ac und]
+13.6 +11.2 85 +18  1025.6  -0.2  759  289           
03 17.08.17 тихо ()   20000 м    4/3 600 м кучево-дожд., средняя, верхняя 
[Cb cap|Ac trans|Ci fib]
+11.6 +10.8 95 +14  1025.2  -0.4  759  291  +11.4         
06 17.08.17 170 (Ю) 20000 м    9/5 600 м кучево-дожд., средняя, верхняя 
[Cb cap|Ac und|Ci fib]
+16.1 +12.7 80 +22  1025  759  286  +11.3        влажная 
09 17.08.17 210 (ЮЗ) 20000 м    8/0 средняя, верхняя 
[Ac trans|Ci fib]
+21.9 +10.9 50 +24  1024.5  -0.3  759  281           
12 17.08.17 180 (Ю) 20000 м    8/0 средняя, верхняя 
[Ac und|Ci fib]
+22.7 +11.5 49 +26  1023.3  -1.1  758  280           
15 17.08.17 160 (Ю) 20000 м    9/5 600 м кучево-дожд., средняя 
[Cb cap|Ac und]
+19.9 +14.5 71 +29  1022.6  -0.8  757  281           
18 17.08.17 160 (Ю) 20000 м    9/5 600 м кучево-дожд., средняя 
[Cb cap|Ac und]
+18.9 +13.1 69 +25  1021.9  -0.8  757  283    +23.7       
21 17.08.17 160 (Ю) 50000 м    10/5 600 м кучево-дожд., средняя 
[Cb cap|Ac und]
+17.4 +13 75 +24  1021.6  -0.3  756  284           
00 18.08.17 200 (Ю) 50000 м    10/5 600 м кучево-дожд., средняя 
[Cb cap|Ac und]
+16.9 +13.9 82 +25  1020.9  -0.8  756  284           
03 18.08.17 110 (В) 20000 м  в посл. час ливневой дождь  10/10 700 м кучево-дожд. 
[Cb cap]
+15.2 +14.7 97 +25  1020.1  -0.9  755  285  +15       
06 18.08.17 200 (Ю) 20000 м  {гроза, ливн. осадки}  8/5 600 м кучево-дожд., средняя 
[Cb cap|Ac und]
+17.9 +16.3 90 +30  1019.5  -0.4  755  282  +15      мокрая 
09 18.08.17 180 (Ю) 20000 м    8/3 600 м кучево-дожд., средняя 
[Cb cap|Ac und]
+21.9 +16.9 73 +34  1019  -0.3  755  278           
12 18.08.17 200 (Ю) 4{10}  20000 м    5/3 1000 м средняя 
[Cu Sc|Ac trans]
+24.2 +16.5 62 +35  1016.9  -2  753  275           
15 18.08.17 210 (ЮЗ) 4{11}  20000 м    5/3 1000 м средняя 
[Sc|Ac trans]
+23.5 +16.1 63 +34  1016.1  -0.8  752  276         
18 18.08.17 260 (З) 50000 м  в посл. час ливневой дождь  9/5 600 м кучево-дожд., средняя, верхняя 
[Cb cap|Ac und|Ci fib]
+17.7 +17.2 97 +32  1016  -0.4  752  281    +24.4     
21 18.08.17 тихо ()   21000 м  туман поземный  ясно 
+15.8 +15.4 97 +25  1016.4  0.3  752  283           
00 19.08.17 тихо ()   22000 м  туман поземный  ясно 
+14.4 +14.1 98 +21  1016.7  0.2  753  285           
03 19.08.17 260 (З) 24000 м  туман поземный  8/0 средняя, верхняя 
[Ac und|Ci fib]
+15.2 +14.9 98 +25  1016.3  -0.3  752  284  +13.8       
06 19.08.17 230 (ЮЗ) 20000 м    9/9 540 м кучево-дожд. 
[Cb cap]
+17.5 +16.3 93 +29  1016.7  0.5  753  281  +13.8        влажная 
09 19.08.17 190 (Ю) 20000 м    9/5 600 м кучево-дожд., средняя, верхняя 
[Cb cap|Ac und|Ci fib]
+20.8 +16.2 75 +32  1016.6  753  278           
Время (UTC), дата Ветер
(°,м/с) 
Видим.   Явления Облачность Т
(°С)
Тd
(°С)
f(%) Тe
(°С)
Pmin
(гПа)
dP
(гПа)
Po
(мм)
O2
(г/м3)
Тmin Tmax R s Состояние
почвы

Для получения пояснительной информации подведите курсор к названию столбца.

ПОГОДА Винницы - архив

Всё, что Вы хотите узнать о погоде Винницы - удобно и подробно!

Выберите нужную дату (начиная с 1 января 2015* года) и нажмите кнопку "Найти".
Будут отображены архивные сводки погоды по пункту Винницы, начиная с указанной даты.


Отображать данные в формате CSV (для использования в таблицах Excel)


Внимание! Наш архив погоды предназначен исключительно для личного некоммерческого использования в познавательных целях. Если Вам необходимы официальные справки о состоянии погоды (для производственных, юридических, коммерческих и т.п. целей), обращайтесь в органы Росгидромета.

*Примечание: данная дата относится к архиву по метеостанциям СССР (Россия, СНГ, Балтия).
Архив по метеостанциям Зарубежной Европы и Азии (кроме Китая) хранится 10 дней, по другим регионам земного шара (Китай, Африка, Америка, Австралия, Океания) - 1 день.

Винницы - район местоположения метеостанции


Название, широта, долгота, высота метеостанции:
Винницы 60.6°ш. 34.8°д. 111 м над ур. моря [Российская Федерация]

Дополнительная информация

В oтличие oт бoльшинства пoгoдных сайтoв мы публикуем пoдрoбную метеoинфoрмацию в детальнoм прoфессиoнальнoм фoрмате.

Характеристики температуры и влажнoсти вoздуха измеряются на высoте 2 м в тени вдали oт зданий и деревьев.
Скoрoсть ветра измеряется на высoте 10 м (на урoвне рoста челoвека скoрoсть ветра ниже в 1.5-2 раза). Если метеoстанция нахoдится в гoрoде или в лесу, тo скoрoсть ветра занижена на 2-4 м/с пo сравнению с oткрытым местoм. Скoрoсть ветра над акватoриями крупных рек и oзёр, а также на вершинах хoлмoв на 2-5 м/с выше, чем в oбычных услoвиях.
Атмoсфернoе давление в разных тoчках местнoсти мoжет значительнo oтличаться oт давления на метеoстанции, в зависимoсти oт услoвий рельефа (при пoдъёме на 10 м давление пoнижается примернo на 1 мм рт.ст.).